Kaneohe MCBH, HI

2:20 PM HST on July 27, 2017 (GMT -1000)
Kaneohe Bay Marine Corps Air Facility

Weather History for PHNG - April, 2014

Change the Weather History Date:

Friday, April 25, 2014

  Actual Average Record
Temperature  
Mean Temperature 76 °F -  
Max Temperature 82 °F 76 °F 132 °F (2005)
Min Temperature 69 °F 68 °F 66 °F (2008)
Cooling Degree Days 10    
Growing Degree Days 26 (Base 50)    
Moisture  
Dew Point 64 °F    
Average Humidity 70    
Maximum Humidity 88    
Minimum Humidity 54    
Precipitation  
Precipitation 0.00 in - - ()
Sea Level Pressure  
Sea Level Pressure 30.12 in    
Wind  
Wind Speed 13 mph (ENE)    
Max Wind Speed 16 mph    
Max Gust Speed 30 mph    
Visibility 7 miles    
Events Rain    
Averages and records for this station are not official NWS values.
T = Trace of Precipitation, MM = Missing Value Source: NWS Daily Summary

Daily Weather History Graph

Daily Weather History Graph

Search for Another Location

Airport or City:

Trip Planner

Search our weather history database for the weather conditions in past years. The results will help you decide how hot, cold, wet, or windy it might be!

Date:

Astronomy

Apr. 25, 2014 Rise Set
Actual Time 6:03 AM HST 6:54 PM HST
Civil Twilight 5:40 AM HST 7:17 PM HST
Nautical Twilight 5:13 AM HST 7:44 PM HST
Astronomical Twilight 4:46 AM HST 8:12 PM HST
Moon 3:30 AM HST (4/25) 3:53 PM HST (4/25)
Length of Visible Light 13h 36m
Length of Day
12h 50m
Waning Crescent, 13% of the Moon is Illuminated
Apr 25
Waning Crescent
Apr 28
New
May 6
First Quarter
May 14
Full
May 21
Last Quarter

Hourly Weather History & Observations

Time (HST) Temp. Heat Index Dew Point Humidity Pressure Visibility Wind Dir Wind Speed Gust Speed Precip Events Conditions
12:57 AM 69.8 °F - 66.0 °F 88% 30.12 in 6.0 mi ENE 15.0 mph 29.9 mph N/A Rain Light Rain
1:09 AM 69.8 °F - 64.4 °F 83% 30.13 in 6.2 mi ENE 15.0 mph 24.2 mph N/A   Overcast
1:57 AM 69.8 °F - 64.9 °F 84% 30.11 in 7.0 mi East 13.8 mph 23.0 mph N/A   Mostly Cloudy
2:04 AM 69.8 °F - 64.4 °F 83% 30.12 in 6.2 mi East 16.1 mph 25.3 mph N/A   Partly Cloudy
2:57 AM 69.8 °F - 64.9 °F 84% 30.10 in 7.0 mi East 8.1 mph 18.4 mph N/A   Scattered Clouds
3:57 AM - - - N/A% 30.10 in 6.0 mi ENE 10.4 mph 19.6 mph N/A   Haze
4:57 AM 69.8 °F - 64.0 °F 82% 30.10 in 7.0 mi ENE 11.5 mph 18.4 mph N/A   Partly Cloudy
5:57 AM 69.8 °F - 63.0 °F 79% 30.11 in 6.0 mi ENE 10.4 mph - N/A   Haze
6:57 AM 73.9 °F - 62.1 °F 66% 30.13 in 7.0 mi ENE 11.5 mph - N/A   Clear
7:57 AM 75.9 °F - 63.0 °F 64% 30.14 in 7.0 mi ENE 10.4 mph 19.6 mph N/A   Partly Cloudy
8:57 AM 75.9 °F - 63.0 °F 64% 30.15 in 7.0 mi ENE 13.8 mph 21.9 mph N/A   Scattered Clouds
9:57 AM 75.9 °F - 64.9 °F 69% 30.15 in 7.0 mi ENE 13.8 mph 25.3 mph N/A   Partly Cloudy
10:57 AM 80.6 °F 82.2 °F 64.0 °F 57% 30.15 in 7.0 mi ENE 13.8 mph 21.9 mph N/A   Mostly Cloudy
11:57 AM 82.4 °F 83.9 °F 64.0 °F 54% 30.14 in 7.0 mi ENE 11.5 mph 21.9 mph N/A   Mostly Cloudy
12:57 PM 82.4 °F 83.9 °F 64.0 °F 54% 30.12 in 7.0 mi ENE 11.5 mph 19.6 mph N/A   Scattered Clouds
1:57 PM 82.4 °F 84.1 °F 64.9 °F 55% 30.10 in 7.0 mi ENE 13.8 mph 20.7 mph N/A   Mostly Cloudy
2:57 PM 82.4 °F 84.4 °F 66.0 °F 57% 30.09 in 7.0 mi East 15.0 mph 23.0 mph N/A   Mostly Cloudy
3:57 PM 78.8 °F - 64.0 °F 60% 30.08 in 7.0 mi ENE 13.8 mph 24.2 mph N/A   Mostly Cloudy
4:11 PM 78.8 °F - 64.4 °F 61% 30.09 in 6.2 mi ENE 13.8 mph 21.9 mph N/A   Mostly Cloudy
4:19 PM 78.8 °F - 64.4 °F 61% 30.09 in 6.2 mi ENE 13.8 mph 25.3 mph N/A   Mostly Cloudy
4:57 PM 78.8 °F - 64.0 °F 60% 30.08 in 7.0 mi ENE 11.5 mph 20.7 mph N/A   Scattered Clouds
5:57 PM 77.0 °F - 63.0 °F 62% 30.09 in 7.0 mi ENE 9.2 mph 20.7 mph N/A   Mostly Cloudy
6:57 PM 73.4 °F - 63.0 °F 70% 30.11 in 7.0 mi ENE 12.7 mph 21.9 mph N/A   Mostly Cloudy
7:57 PM 73.4 °F - 63.0 °F 70% 30.12 in 7.0 mi East 15.0 mph 25.3 mph N/A   Partly Cloudy
8:57 PM 71.6 °F - 64.0 °F 77% 30.13 in 7.0 mi ENE 10.4 mph 18.4 mph N/A   Scattered Clouds
9:57 PM 69.8 °F - 64.9 °F 84% 30.14 in 7.0 mi ENE 11.5 mph 21.9 mph N/A   Scattered Clouds
10:57 PM 69.8 °F - 64.0 °F 82% 30.14 in 7.0 mi ENE 16.1 mph 26.5 mph N/A   Scattered Clouds
11:57 PM 69.8 °F - 64.0 °F 82% 30.13 in 7.0 mi ENE 13.8 mph 25.3 mph N/A   Mostly Cloudy